Location: Kuppenheim
(48.8299°N, 8.2568°E)
Time: 10:28:08
(UTC+00:00)

BREEZE-M R/B - Pass Details

Date: 20 June 2021
Orbit: 579 x 26589 km, 48.9° (Epoch: 27 July)

Event Time Altitude Azimuth Distance (km) Brightness Sun altitude
Exits shadow 01:11:26 23° 190° (S) 1,248 3.5 -14.2°
Maximum altitude 01:12:56 33° 143° (SE) 1,040 3.5 -14.1°
Drops below altitude 10° 01:17:25 10° 78° (ENE) 2,743 6.4 -13.8°
Sets 01:21:34 0° 70° (ENE) 4,779 7.9 -13.5°
